User: anonymous   Login
Location: Vancouver
(49.2500°N, 123.1330°W)
Time: 03:43:15
(UTC-07:00)
Language:

ERS-2 - Orbit

View from above orbital plane
View from above orbital plane
View from above satellite
View from above satellite

Ground track
Ground track

The orbit data is extracted from the following two-line orbital elements,

1 23560U 95021A   16146.33192449  .00002092  00000-0  10413-3 0  9991
2 23560  98.5134  82.2074 0004081 159.1335 201.0064 15.18971342116474
Epoch (UTC): 25 May 2016 07:57:58
Eccentricity: 0.0004081
inclination: 98.5134°
perigee height: 506 km
apogee height: 512 km
right ascension of ascending node: 82.2074°
argument of perigee: 159.1335°
revolutions per day: 15.18971342
mean anomaly at epoch: 201.0064°
orbit number at epoch: 11647

The dashed part of the orbit path shows where the satellite is in the earth's shadow,  

DLR